Theta_e
319 311 313 308 298 296 292 296 299 300 299 302 305 305 304 299 305 302 306 314 323 326 332 334 336 337 338 337 336 336 336 336 336 336 335 334 334 333 332 332 331 332 333 332 333 333 331 330 331
313 311 309 302 294 289 291 298 300 302 302 302 300 300 299 297 297 301 309 319 322 325 328 330 334 335 336 335 335 334 334 334 334 333 332 332 331 329 329 328 328 329 329 328 328 327 326 329 331
314 311 304 298 293 290 291 298 300 301 304 303 297 295 294 294 296 304 302 318 318 319 324 328 331 333 333 333 333 332 332 332 331 330 330 329 327 326 327 327 326 326 327 326 325 327 332 331 329
307 304 304 296 293 295 297 301 303 298 299 302 299 295 292 296 298 301 313 316 315 316 322 328 330 332 331 330 330 330 329 328 328 327 326 325 325 324 324 324 323 323 324 325 328 331 330 330 333
305 303 297 293 294 298 301 304 302 298 297 298 299 295 293 297 300 310 314 315 313 313 320 324 327 329 329 329 328 327 326 326 325 324 323 322 322 322 321 321 321 322 323 328 330 328 328 330 331
298 302 293 293 295 300 303 306 302 300 299 298 296 293 292 297 300 307 312 311 313 312 313 319 321 324 325 326 325 324 323 323 322 322 322 320 320 320 321 321 320 323 327 328 327 327 328 329 331
297 296 293 292 295 298 303 308 302 302 299 298 298 295 292 295 300 308 310 310 310 309 309 309 313 315 319 320 321 320 319 320 319 318 318 317 317 318 320 320 324 325 326 325 326 326 326 327 328
299 297 292 294 295 297 304 304 305 306 305 297 299 296 296 296 301 307 309 309 308 306 306 305 306 308 308 308 315 316 316 315 315 313 312 313 315 316 318 321 323 322 322 325 325 324 325 325 324
302 294 291 294 295 298 298 295 297 297 298 296 296 295 296 299 300 304 304 305 305 305 305 305 303 302 303 304 306 309 310 310 310 307 308 307 304 305 308 317 320 321 323 322 322 322 320 318 317
298 292 294 299 299 299 299 296 295 295 294 293 293 294 296 299 297 300 302 302 302 302 303 304 302 300 300 303 299 297 298 296 296 297 295 297 300 302 305 308 315 320 320 319 318 315 312 309 307
296 295 298 300 302 299 298 298 295 296 295 297 295 294 294 296 296 297 299 302 302 302 301 301 301 298 297 295 296 294 292 292 292 292 293 294 298 297 297 298 300 302 306 302 303 302 303 305 306
292 297 300 301 301 296 295 295 296 297 301 298 300 295 293 294 295 296 297 298 299 299 299 299 300 297 294 294 294 293 292 291 291 292 292 292 293 295 295 297 298 298 298 297 297 298 298 299 300
291 292 296 299 299 296 297 294 293 294 298 294 294 294 293 294 295 296 296 296 297 296 297 296 297 296 293 293 292 291 291 292 290 291 292 292 293 294 295 295 296 296 296 295 291 292 296 296 296
290 291 291 294 296 296 295 292 295 299 299 296 293 292 292 293 294 293 294 295 295 296 298 297 296 295 294 292 291 291 291 290 289 289 291 293 294 294 294 294 294 294 294 291 289 289 291 292 293
290 287 288 289 292 292 293 288 290 297 295 297 293 291 291 292 293 293 296 295 296 296 296 295 296 295 293 292 291 290 290 289 288 289 290 292 294 293 293 293 292 292 291 288 287 286 288 289 289
285 284 282 286 289 290 292 285 291 291 291 292 293 292 290 291 293 295 295 295 295 296 295 295 296 294 293 292 291 291 290 289 287 287 289 291 293 293 291 291 291 291 289 287 286 286 285 286 286
281 278 279 283 287 287 287 282 288 288 289 289 290 290 290 291 291 293 294 295 295 295 296 295 295 293 292 292 292 290 290 290 289 287 287 289 293 293 291 290 290 290 288 287 287 285 285 283 283
280 278 279 280 283 284 283 283 286 288 286 288 288 289 290 291 293 294 294 295 295 295 294 293 294 293 293 292 291 290 289 288 288 287 286 289 291 292 291 290 290 289 288 286 286 285 285 284 284
280 279 279 280 284 283 282 284 285 287 284 285 287 287 288 290 295 295 292 292 291 292 292 292 292 293 292 289 288 288 287 287 287 287 288 288 290 291 290 289 289 288 287 287 286 285 285 283 284
280 279 278 280 282 282 279 281 282 284 285 286 288 287 288 289 286 292 292 292 292 292 292 293 293 290 290 291 290 289 288 287 287 287 286 287 290 291 291 289 288 288 287 286 285 285 283 283 282
280 280 279 279 279 279 276 278 278 281 283 285 285 288 288 285 286 287 290 292 292 291 292 292 291 289 290 289 287 285 285 285 284 283 284 285 289 291 291 289 288 287 288 286 284 285 284 281 283
278 281 281 280 278 274 275 272 275 280 281 281 284 280 282 282 284 287 289 289 291 291 291 290 289 288 288 288 287 285 285 284 284 286 285 285 288 290 290 290 288 287 286 285 285 286 284 284 282
280 282 281 279 276 273 272 272 273 276 279 283 281 281 281 281 281 283 288 290 290 290 289 288 287 287 287 287 287 286 285 285 284 283 283 284 285 288 289 289 287 286 286 284 286 284 284 284 283
282 279 279 276 274 266 272 274 274 276 280 279 279 280 281 280 281 284 287 288 286 286 285 285 285 286 286 286 286 286 285 284 283 283 283 283 282 284 288 288 287 286 285 285 284 285 284 283 282
280 278 273 270 265 267 271 272 278 280 280 280 279 280 281 280 281 284 284 285 284 283 284 284 285 284 285 285 285 285 285 284 284 283 283 282 282 282 285 286 286 285 285 284 283 283 282 282 281
277 279 274 268 267 269 272 270 275 280 279 280 281 279 279 279 281 284 284 284 283 283 283 284 283 284 284 284 285 285 284 284 284 284 284 283 283 283 283 284 285 285 284 284 283 282 281 281 281
277 275 279 272 267 266 271 274 279 279 278 278 279 279 280 280 280 281 284 284 283 283 282 284 283 284 284 284 284 284 284 283 283 284 284 283 283 283 283 284 284 284 283 283 281 281 280 280 280
277 278 273 273 265 263 270 270 274 276 277 277 278 278 280 280 279 281 281 283 283 283 282 282 283 283 284 283 284 284 284 284 284 284 283 283 283 283 282 282 282 282 282 281 281 280 280 279 279
274 274 274 275 274 270 266 271 277 278 278 277 278 279 280 279 281 281 281 280 282 283 282 282 281 282 282 283 283 283 283 284 284 283 283 283 283 283 282 282 282 282 281 280 280 279 279 279 279
273 275 275 273 270 270 270 271 277 278 278 279 279 281 279 280 280 280 280 280 280 282 281 281 281 282 283 283 283 284 283 283 283 283 283 283 282 283 282 282 281 281 280 279 279 279 279 278 278
Wind_Speed
5 3 3 5 3 3 4 7 3 4 2 2 3 2 4 4 3 6 3 3 4 6 6 7 10 9 10 10 10 10 10 9 9 9 9 8 8 7 6 6 5 6 6 5 6 6 6 6 5
2 2 5 3 4 3 5 4 7 6 1 5 3 3 4 1 1 1 3 2 5 6 4 6 8 8 10 10 11 10 10 10 10 9 9 9 8 7 7 6 6 7 6 6 5 4 2 1 0
2 2 4 4 4 8 5 5 6 2 4 4 3 4 2 2 2 5 2 6 7 6 4 6 6 8 10 9 10 11 11 11 11 10 10 9 9 7 7 7 6 6 7 7 5 5 5 7 7
2 4 4 2 10 6 6 5 5 1 2 2 3 3 1 2 3 5 7 7 7 5 4 7 5 6 7 8 10 11 10 10 11 10 9 8 8 8 7 6 7 5 5 7 7 10 11 9 8
3 2 2 4 6 5 5 5 3 4 2 2 1 4 2 2 2 8 10 9 9 4 4 3 3 5 7 8 10 9 9 10 10 10 9 8 8 8 7 7 6 6 6 7 12 11 11 10 9
1 1 1 8 7 4 5 5 6 5 5 5 5 5 4 2 9 9 10 8 7 7 5 4 5 1 4 5 7 8 8 9 10 10 10 9 8 8 9 8 7 9 8 12 12 11 12 11 10
5 3 5 4 4 5 7 6 5 6 6 6 7 6 1 6 6 8 11 12 9 6 6 5 4 5 3 2 5 6 7 8 8 10 10 10 8 8 8 9 11 11 11 11 12 13 14 12 14
5 4 4 6 5 10 5 5 0 6 6 2 5 7 7 8 12 10 10 9 11 11 7 6 5 4 4 4 3 3 6 7 8 8 8 9 8 7 7 5 9 10 11 14 14 15 14 15 16
5 2 5 7 7 7 3 4 2 2 3 3 3 1 6 12 13 10 5 6 7 8 11 9 7 5 4 3 2 2 5 6 8 7 8 5 3 2 2 5 10 11 14 15 15 15 15 16 16
5 5 9 7 6 5 3 6 6 4 4 4 4 2 4 14 15 15 14 13 11 12 10 10 10 8 5 3 1 1 2 2 1 3 4 2 3 2 5 8 9 9 14 14 13 12 13 10 6
6 10 5 4 6 3 3 3 6 7 8 8 10 6 8 9 12 12 12 12 14 10 8 10 11 11 9 5 3 1 0 0 1 3 4 3 2 3 3 3 3 4 12 5 6 5 5 8 6
4 9 6 4 5 4 5 4 4 8 10 3 8 7 11 15 16 16 15 12 12 11 12 12 10 10 9 4 4 4 3 2 2 3 4 3 2 3 3 3 3 4 3 6 4 3 7 9 9
6 5 5 8 6 5 4 6 6 14 8 1 3 8 13 14 15 11 10 8 8 12 13 13 11 10 12 7 4 3 4 3 3 3 4 3 4 4 3 3 3 4 4 4 4 5 7 8 8
3 4 5 6 6 5 6 2 4 15 7 9 7 11 11 16 16 7 8 12 13 12 13 11 12 10 9 9 6 5 3 4 3 3 4 5 4 4 4 4 4 4 4 4 4 5 6 7 7
1 4 4 7 5 6 6 4 12 16 3 9 11 9 9 13 9 16 17 14 13 9 9 11 11 10 11 14 8 5 4 4 4 4 5 5 5 5 5 4 4 4 4 6 5 5 6 7 7
3 2 4 3 9 5 9 12 15 5 7 13 11 10 10 13 17 17 10 10 9 9 11 11 10 12 11 9 9 6 4 4 3 3 3 5 5 6 5 5 4 4 4 5 4 5 6 7 6
2 5 8 6 9 5 8 4 11 1 5 11 9 10 9 11 11 12 12 12 11 13 14 14 13 13 9 8 5 5 6 4 4 3 4 5 5 6 6 5 5 5 5 4 6 4 5 7 6
10 7 5 6 5 4 5 12 10 7 4 11 10 9 9 12 21 15 16 12 10 11 13 14 12 11 10 6 5 5 5 4 3 4 4 6 5 6 5 5 6 5 6 5 4 6 4 4 7
4 6 8 4 5 4 9 13 12 10 6 11 15 14 15 18 19 9 9 10 10 11 14 16 15 14 11 8 7 4 7 4 4 4 6 6 5 6 6 5 6 5 7 6 7 5 9 4 6
3 4 7 4 3 4 5 17 10 9 10 12 18 15 20 13 4 7 10 13 16 18 18 17 16 16 14 11 10 6 6 3 4 4 5 5 6 6 6 7 7 7 6 7 8 7 4 3 2
9 14 8 5 2 3 3 12 7 8 9 10 11 20 12 9 10 10 11 16 14 16 19 19 18 17 15 15 8 4 5 3 3 4 3 4 5 6 6 6 7 7 7 8 6 5 6 4 2
12 9 6 3 5 6 0 11 5 6 8 6 12 3 9 9 10 9 11 11 16 18 14 15 16 17 14 16 13 12 9 7 5 6 3 4 5 5 6 6 6 7 4 7 6 5 4 4 4
6 5 7 5 4 2 3 2 5 1 7 14 5 4 6 7 8 8 9 12 10 10 12 12 13 14 14 15 14 11 8 4 4 4 7 5 4 5 6 6 7 7 5 6 7 6 6 3 4
8 6 6 4 3 2 9 8 7 6 11 3 1 5 7 9 8 4 4 6 6 7 8 10 13 14 13 14 13 15 13 10 7 7 7 6 3 4 6 6 6 6 6 8 6 6 7 5 4
2 7 1 2 1 9 1 4 15 7 6 5 4 4 8 8 5 3 4 6 7 9 9 9 12 13 13 14 13 14 13 12 12 11 8 9 5 4 7 6 7 6 6 6 6 6 5 6 5
7 7 7 7 5 4 4 10 10 3 1 5 6 4 2 5 8 6 2 5 6 7 8 11 12 12 13 13 13 11 10 8 8 9 8 8 7 6 6 6 7 7 8 7 6 4 4 5 4
7 8 4 4 1 3 6 8 10 5 3 4 7 5 7 7 6 7 6 4 6 7 9 12 12 11 12 13 10 11 9 10 10 11 9 8 6 5 7 7 7 8 8 8 7 5 5 5 4
3 4 6 1 4 5 5 6 9 4 9 7 6 7 7 6 4 5 6 5 4 6 6 7 8 12 10 9 10 10 10 10 8 9 11 10 8 8 8 7 7 7 7 7 7 5 5 6 4
3 3 1 3 3 7 2 9 7 9 11 11 8 7 7 2 3 5 7 5 4 4 7 7 7 8 8 10 10 9 9 9 10 10 10 11 10 10 10 9 8 8 8 7 6 6 6 7 6
2 5 6 5 6 2 3 10 6 8 12 9 8 7 2 4 6 7 8 9 7 4 4 7 6 9 10 10 9 10 9 9 10 10 11 10 11 10 10 8 7 7 7 7 7 8 6 7 7
Wind_Direction
325 332 99 48 75 73 245 245 252 268 275 339 12 208 168 91 203 200 309 235 97 97 124 130 142 154 154 155 155 149 140 145 144 147 137 129 130 125 113 108 88 72 64 52 46 36 26 356 341
322 139 40 91 122 205 254 239 250 233 184 117 76 359 10 125 68 97 103 200 91 93 86 109 139 160 155 160 163 158 152 149 147 141 136 129 123 119 117 111 111 111 101 88 81 64 52 1 101
264 40 106 156 186 216 214 213 238 293 161 170 111 72 15 263 330 176 287 139 101 89 82 98 147 170 152 167 161 155 148 147 142 141 135 130 126 122 116 112 104 102 105 96 85 97 88 64 31
154 18 26 162 229 251 204 258 247 179 195 130 117 97 179 211 205 182 129 116 98 79 104 126 156 167 161 173 166 159 154 151 144 138 132 130 125 119 116 107 106 93 92 104 117 82 71 58 56
46 77 205 244 252 245 234 226 166 159 179 118 132 203 202 255 131 130 130 130 127 105 78 109 158 179 176 176 172 164 158 153 143 138 130 127 126 122 119 117 113 111 113 126 90 77 76 65 63
76 121 188 236 250 253 255 218 159 181 175 164 116 159 228 216 150 164 139 135 130 129 98 92 73 114 175 179 173 169 166 157 146 141 135 131 131 130 129 126 128 129 131 96 90 89 86 74 73
160 130 225 223 246 272 224 158 190 203 176 219 147 150 237 215 210 159 150 143 131 125 120 99 82 58 24 161 171 168 172 163 151 145 142 134 134 133 131 133 144 124 110 101 102 92 82 79 73
142 136 240 223 198 265 228 168 233 165 221 67 149 203 232 197 165 155 161 160 148 150 147 139 112 95 80 26 63 156 171 168 153 141 133 130 134 114 126 119 124 125 121 116 101 92 89 88 75
137 167 231 208 180 233 156 183 166 138 123 244 211 208 314 147 132 142 163 163 169 177 159 157 146 133 117 97 74 141 183 179 155 136 134 113 88 83 65 121 124 136 122 112 105 100 93 83 75
167 185 224 203 206 219 206 180 179 145 194 246 278 278 81 146 161 172 180 183 189 185 180 167 153 150 150 167 130 61 8 44 49 127 123 129 129 97 73 62 73 116 122 113 107 102 91 74 61
196 226 198 237 230 207 222 195 166 143 237 214 208 192 165 169 188 190 197 200 195 180 180 177 175 159 155 158 158 155 278 152 215 161 150 140 104 70 70 68 67 61 76 57 71 82 73 77 74
211 239 190 225 215 166 213 134 196 193 226 174 240 170 170 184 195 201 205 192 188 181 183 180 183 170 154 147 167 175 175 192 208 199 176 148 136 115 102 100 95 85 84 96 94 96 85 77 72
222 238 203 234 223 225 138 207 206 248 226 200 113 164 187 197 207 211 204 195 182 190 183 181 177 179 151 155 162 185 174 171 211 201 195 159 157 145 133 122 106 98 97 106 97 90 94 81 74
231 225 239 229 227 209 188 228 136 259 176 220 196 207 202 204 205 198 199 200 195 189 189 174 172 174 180 144 163 184 170 167 187 212 201 180 157 150 143 133 118 106 110 94 91 89 97 85 80
187 277 291 235 205 223 129 250 230 250 157 236 229 227 219 221 197 211 209 205 197 193 167 171 171 172 192 147 168 164 179 160 179 207 198 184 164 163 149 139 132 128 109 100 90 77 86 88 78
190 143 250 239 165 222 144 255 257 219 193 243 243 237 224 226 221 226 208 206 189 179 178 167 175 181 187 176 156 159 162 147 188 202 198 192 172 159 144 137 135 135 113 111 104 107 84 89 83
258 222 222 310 192 126 184 243 257 96 197 262 258 252 236 246 241 230 213 200 183 181 174 179 181 173 165 136 163 137 150 172 184 196 203 197 176 163 142 143 136 135 121 111 126 79 102 106 93
212 214 240 209 206 155 219 253 284 264 223 250 268 266 254 246 245 222 213 199 183 180 174 170 170 167 155 153 160 152 157 162 165 198 204 193 176 164 144 140 139 135 128 119 106 114 58 112 116
183 204 201 224 203 159 224 251 244 257 234 255 256 258 251 243 249 217 191 184 175 170 171 175 169 172 160 164 158 166 184 172 184 200 200 193 177 164 154 154 145 146 148 144 134 115 123 75 124
179 186 232 277 218 185 278 265 235 245 242 224 243 248 248 259 268 207 191 185 187 181 179 178 182 173 176 174 178 175 175 173 161 189 207 193 175 167 164 160 160 155 138 138 148 143 124 95 190
222 227 229 219 64 235 305 277 234 264 257 268 251 248 277 262 254 223 202 194 185 186 185 184 181 174 178 171 152 108 90 77 132 187 198 198 182 168 169 162 158 155 154 159 157 146 136 142 209
229 191 168 172 119 235 178 284 280 234 255 271 263 278 262 269 263 245 201 192 193 196 185 179 177 175 176 168 170 172 182 173 186 173 161 171 187 177 169 162 156 157 148 157 163 148 137 132 143
232 133 164 149 162 42 230 266 260 138 259 255 340 351 310 298 298 264 210 204 199 172 177 174 170 176 172 177 179 175 182 161 139 136 152 165 179 181 178 171 160 159 158 153 155 148 153 140 141
151 84 65 67 118 312 186 164 250 193 219 120 96 327 329 331 331 301 201 153 153 141 149 161 169 178 173 178 179 182 182 165 152 161 172 174 171 177 181 171 162 160 156 162 160 157 163 166 142
164 126 152 317 14 229 239 179 248 269 222 182 117 41 357 344 349 57 142 167 162 166 166 166 171 180 176 180 184 186 180 173 175 171 180 171 171 180 189 167 164 159 150 149 145 158 169 172 168
188 167 159 205 208 220 117 227 251 250 226 144 131 136 128 34 39 39 241 205 194 176 171 176 179 180 179 183 188 183 173 176 180 177 175 184 187 184 161 162 160 158 153 151 154 150 163 163 155
175 209 127 120 10 49 213 279 296 188 108 114 147 104 71 44 23 15 324 257 207 188 193 189 182 187 185 188 181 180 171 174 181 175 173 176 166 159 159 163 160 158 157 157 156 153 158 146 147
157 167 159 278 161 224 256 268 234 172 176 172 166 121 82 60 20 338 321 295 246 217 197 195 187 191 187 180 184 186 178 178 167 164 170 169 161 161 162 163 162 157 154 151 147 141 146 140 139
156 186 246 148 168 186 240 256 228 181 168 166 166 138 107 108 303 311 318 309 306 223 192 194 187 181 178 181 178 174 178 174 165 170 173 170 161 165 168 169 165 161 156 150 138 136 144 142 140
325 209 169 155 205 224 156 262 329 162 156 146 142 124 93 353 342 332 335 328 339 307 224 208 185 186 189 184 173 178 171 166 169 171 171 168 170 167 166 157 155 151 145 143 145 151 154 149 148